Glasgow, MT

1:22 AM MST on January 20, 2017 (GMT -0700)
Wokal-Glasgow International

Weather History for KGGW - January, 2014

Change the Weather History Date:

Saturday, January 25, 2014

  Actual Average Record
Temperature  
Mean Temperature 41 °F 14 °F  
Max Temperature 50 °F 24 °F 50 °F (2012)
Min Temperature 31 °F 5 °F -48 °F (1943)
Degree Days  
Heating Degree Days 24 51  
Month to date heating degree days 1106 1290  
Since 1 July heating degree days 4796 4792  
Cooling Degree Days 0 0  
Month to date cooling degree days 0 0  
Year to date cooling degree days 0 0  
Moisture  
Dew Point 31 °F    
Average Humidity 71    
Maximum Humidity 92    
Minimum Humidity 50    
Precipitation  
Precipitation 0.00 in 0.01 in 0.61 in (1916)
Month to date precipitation 0.06 0.32  
Year to date precipitation 0.06 0.32  
Snow  
Snow 0.00 in 0.20 in 7.00 in (1916)
Month to date snowfall 0.4 6.8  
Since 1 July snowfall 19.2 21.4  
Snow Depth T in    
Sea Level Pressure  
Sea Level Pressure 29.89 in    
Wind  
Wind Speed 16 mph (WNW)    
Max Wind Speed 33 mph    
Max Gust Speed 45 mph    
Visibility 10 miles    
Events      
T = Trace of Precipitation, MM = Missing Value Source: NWS Daily Summary

Daily Weather History Graph

Daily Weather History Graph

Search for Another Location

Airport or City:

Trip Planner

Search our weather history database for the weather conditions in past years. The results will help you decide how hot, cold, wet, or windy it might be!

Date:

Astronomy

Jan. 25, 2014 Rise Set
Actual Time 7:43 AM MST 4:55 PM MST
Civil Twilight 7:08 AM MST 5:29 PM MST
Nautical Twilight 6:30 AM MST 6:07 PM MST
Astronomical Twilight 5:54 AM MST 6:44 PM MST
Moon 2:16 AM MST (1/25) 11:58 AM MST (1/25)
Length of Visible Light 10h 20m
Length of Day
9h 12m
Waning Crescent, 33% of the Moon is Illuminated
Jan 25
Waning Crescent
Jan 30
New
Feb 6
First Quarter
Feb 14
Full
Feb 22
Last Quarter

Hourly Weather History & Observations

Time (MST) Temp. Windchill Dew Point Humidity Pressure Visibility Wind Dir Wind Speed Gust Speed Precip Events Conditions
12:53 AM 36.0 °F 30.3 °F 32.0 °F 86% 30.13 in 10.0 mi WSW 6.9 mph - N/A   Overcast
1:53 AM 37.0 °F 32.4 °F 33.1 °F 86% 30.13 in 10.0 mi NW 5.8 mph - N/A   Overcast
2:53 AM 35.1 °F - 32.0 °F 89% 30.12 in 10.0 mi Calm Calm - N/A   Overcast
3:53 AM 35.1 °F - 32.0 °F 89% 30.09 in 10.0 mi Calm Calm - N/A   Overcast
4:53 AM 34.0 °F 28.0 °F 30.9 °F 89% 30.06 in 10.0 mi SW 6.9 mph - N/A   Mostly Cloudy
5:53 AM 32.0 °F 25.6 °F 30.9 °F 96% 30.02 in 10.0 mi West 6.9 mph - N/A   Clear
6:53 AM 33.1 °F 25.5 °F 30.0 °F 89% 29.99 in 10.0 mi West 9.2 mph - N/A   Clear
7:53 AM 32.0 °F 23.6 °F 30.0 °F 92% 29.95 in 10.0 mi West 10.4 mph - N/A   Clear
8:53 AM 33.1 °F 25.5 °F 30.9 °F 92% 29.91 in 10.0 mi WSW 9.2 mph - N/A   Clear
9:53 AM 37.9 °F 29.6 °F 30.9 °F 76% 29.86 in 10.0 mi West 13.8 mph - N/A   Clear
10:53 AM 43.0 °F 37.2 °F 32.0 °F 65% 29.81 in 10.0 mi West 10.4 mph - N/A   Clear
11:53 AM 48.0 °F - 32.0 °F 54% 29.76 in 10.0 mi WNW 21.9 mph 29.9 mph N/A   Clear
12:53 PM 50.0 °F - 32.0 °F 50% 29.71 in 10.0 mi WNW 29.9 mph 39.1 mph N/A   Clear
1:53 PM 50.0 °F - 32.0 °F 50% 29.69 in 10.0 mi WNW 25.3 mph 36.8 mph N/A   Clear
2:53 PM 48.9 °F - 33.1 °F 54% 29.70 in 10.0 mi WNW 23.0 mph 32.2 mph N/A   Clear
3:53 PM 48.0 °F - 32.0 °F 54% 29.74 in 10.0 mi NW 32.2 mph 41.4 mph N/A   Clear
4:53 PM 44.1 °F 35.0 °F 30.9 °F 60% 29.77 in 10.0 mi WNW 24.2 mph 33.4 mph N/A   Scattered Clouds
5:53 PM 42.1 °F 31.5 °F 32.0 °F 67% 29.80 in 10.0 mi WNW 28.8 mph 38.0 mph N/A   Overcast
6:53 PM 39.9 °F 30.8 °F 32.0 °F 73% 29.84 in 10.0 mi WNW 18.4 mph 27.6 mph N/A   Partly Cloudy
7:53 PM 39.0 °F 28.8 °F 30.9 °F 73% 29.86 in 10.0 mi NW 21.9 mph 28.8 mph N/A   Clear
8:53 PM 39.0 °F 28.3 °F 30.0 °F 70% 29.88 in 10.0 mi WNW 24.2 mph 29.9 mph N/A   Clear
9:53 PM 37.0 °F 28.9 °F 30.0 °F 76% 29.87 in 10.0 mi West 12.7 mph 25.3 mph N/A   Clear
10:53 PM 35.1 °F 25.9 °F 30.0 °F 82% 29.86 in 10.0 mi West 13.8 mph - N/A   Clear
11:53 PM 37.9 °F 27.1 °F 28.9 °F 70% 29.83 in 10.0 mi WNW 23.0 mph 29.9 mph N/A   Clear